User: anonymous   Login
Location: Dover
(39.1580°N, 75.5250°W)
Time: 13:33:33
(UTC-05:00)
Language:

SeaSat 1 - Orbit

View from above orbital plane
View from above orbital plane
View from above satellite
View from above satellite

Ground track
Ground track

The orbit data is extracted from the following two-line orbital elements,

1 10967U 78064A   17327.77247302 +.00000010 +00000-0 +43267-4 0  9997
2 10967 108.0120 272.9530 0003077 283.0210 077.0591 14.43679685069409
Epoch (UTC): 23 November 2017 18:32:21
Eccentricity: 0.0003077
inclination: 108.0120°
perigee height: 744 km
apogee height: 748 km
right ascension of ascending node: 272.9530°
argument of perigee: 283.0210°
revolutions per day: 14.43679685
mean anomaly at epoch: 77.0591°
orbit number at epoch: 6940

The dashed part of the orbit path shows where the satellite is in the earth's shadow,  

DLR